Flag for Kazakhstan Weather past 2 weeks in Qyzylorda, Kazakhstan

Now
16 °F

Clear.


Feels Like: 5 °F
Forecast: 25 / 43 °F
Wind: 8 mph from Northeast

Location: Kzyl-Orda

Current Time: Mar 31, 2015 at 8:25:42 AM

Latest Report: Mar 31, 2015 at 8:00 AM


Visibility: 10 mi

Pressure: 30.45 "Hg

Humidity: 86%

Dew point: 12 °F

Location of QyzylordaLocation

Historic Weather in Qyzylorda — Graph

°F

Qyzylorda temperature yesterday

Maximum temperature yesterday: 32 °F (at 5:00 PM)
Minimum temperature yesterday: 10 °F (at 5:00 AM)
Average temperature yesterday: 22 °F

Past Weeks' High & Low Weather Summary

 TemperatureHumidityPressure
High75 °F (Mar 22, 3:00 PM)100% (Mar 16, 8:30 AM)30.66 "Hg (Mar 16, 8:30 AM)
Low10 °F (Mar 30, 5:00 AM)19% (Mar 20, 6:30 PM)29.47 "Hg (Mar 24, 1:00 AM)
Average40 °F60%30.25 "Hg
* Reported Mar 16 7:00 AM — Mar 31 7:00 AM, Qyzylorda, Weather by CustomWeather, © 2015

Note: Actual official high and low records may vary slightly from our data, if they occured in-between our weather recording intervals... More about our weather records

Advertising

Qyzylorda weather history for previous 24 hours

 ConditionsComfort  
Time TempWeatherWind HumidityBarometerVisibility
7:00 AM
Tue, Mar 31
16 °FIce fog.3 mph86%30.45 "Hg3 mi
6:30 AM16 °FIce fog.8 mph86%30.45 "Hg3 mi
6:00 AM16 °FIce fog.6 mph86%30.45 "Hg3 mi
5:30 AM16 °FIce fog.6 mph86%30.45 "Hg3 mi
5:00 AM16 °FIce fog.6 mph86%30.48 "Hg3 mi
4:00 AM16 °FClear.6 mph86%30.48 "Hg10 mi
3:00 AM18 °FClear.3 mph73%30.48 "Hg10 mi
2:00 AM18 °FClear.3 mph73%30.51 "Hg10 mi
1:00 AM19 °FClear.1 mph68%30.54 "Hg10 mi
12:00 AM21 °FClear.3 mph58%30.54 "Hg10 mi
11:00 PM
Mon, Mar 30
21 °FClear.6 mph58%30.54 "Hg10 mi
10:00 PM25 °FClear.3 mph46%30.54 "Hg10 mi
9:00 PM27 °FSunny.3 mph39%30.57 "Hg10 mi
8:00 PM30 °FSunny.6 mph26%30.57 "Hg10 mi
7:30 PM30 °FSunny.10 mph24%30.57 "Hg10 mi
7:00 PM32 °FSunny.10 mph23%30.57 "Hg10 mi
6:30 PM32 °FSunny.10 mph23%30.57 "Hg10 mi
6:00 PM32 °FPassing clouds.10 mph25%30.57 "HgN/A
5:30 PM32 °FSunny.13 mph25%30.57 "Hg10 mi
5:00 PM32 °FSunny.10 mph27%30.57 "Hg10 mi
4:30 PM30 °FSunny.8 mph29%30.57 "Hg10 mi
4:00 PM30 °FSunny.10 mph26%30.60 "Hg10 mi
3:30 PM30 °FSunny.10 mph26%30.60 "Hg10 mi
3:00 PM30 °FSunny.10 mph29%30.63 "Hg10 mi
2:30 PM28 °FSunny.13 mph34%30.63 "Hg10 mi
2:00 PM27 °FSunny.13 mph39%30.63 "Hg10 mi
1:30 PM27 °FSunny.13 mph39%30.63 "Hg10 mi
1:00 PM25 °FSunny.13 mph42%30.63 "Hg10 mi
12:30 PM25 °FSunny.13 mph42%30.63 "Hg10 mi
12:00 PM21 °FSunny.13 mph49%30.66 "Hg10 mi
11:30 AM21 °FPassing clouds.13 mph54%30.66 "HgN/A
11:00 AM19 °FSunny.10 mph58%30.66 "Hg10 mi
10:30 AM18 °FSunny.8 mph62%30.66 "Hg10 mi
10:00 AM16 °FSunny.10 mph67%30.66 "Hg10 mi
9:30 AM14 °FSunny.10 mph67%30.66 "Hg10 mi
8:30 AM12 °FSunny.10 mph67%30.63 "Hg10 mi
8:00 AM10 °FClear.10 mph72%30.63 "Hg10 mi
Weather by CustomWeather, © 2015

See weather overviewHow to use our weather pages